Theta_e
297 298 298 298 297 297 299 300 300 300 299 299 298 297 296 296 296 295 294 293 293 292 292 293 292 292 292 292 293 293 293 293 293 293 293 292 292 291 291 291 290 288 288 287 287 287 286 284 284 283 284 283 283 283 284 285 286 286 286 285 285 285 284 281 277 276 277 277 277 277 278 278 277 277 276 276 276 277 278 275 275 274 275 274 276
297 297 297 297 297 297 298 299 300 300 299 298 297 297 296 296 295 294 293 293 292 292 292 292 292 292 292 292 292 292 292 292 292 292 292 291 290 290 289 289 288 287 286 285 285 286 285 284 283 282 283 282 282 282 283 284 284 284 283 284 283 283 283 280 278 276 274 276 276 277 277 278 276 277 276 275 274 276 275 275 274 274 273 274 274
297 297 297 296 296 296 297 298 300 299 298 298 297 296 296 295 295 294 293 292 292 292 292 292 292 292 292 292 292 291 292 291 291 291 290 290 289 288 288 288 287 286 285 285 284 284 284 283 282 282 283 282 281 281 282 283 283 283 282 282 282 282 282 281 279 276 275 275 276 276 276 276 276 276 276 276 276 275 274 273 274 275 275 273 273
296 296 296 296 296 296 296 297 298 298 298 297 296 296 296 295 294 293 293 292 291 291 292 292 292 291 291 290 290 290 290 290 290 290 290 289 288 288 288 288 287 286 285 285 284 284 283 282 281 282 282 281 281 281 281 282 282 282 281 281 281 281 281 280 280 277 276 274 275 275 276 275 275 276 277 276 275 274 274 274 273 274 273 275 273
295 296 295 295 295 295 295 296 297 297 297 297 296 295 294 294 293 293 292 291 291 290 290 290 290 290 290 290 289 289 289 289 289 289 289 288 288 287 287 287 287 286 286 285 285 284 284 282 281 281 281 280 280 280 280 281 281 281 280 280 280 281 281 280 279 278 276 275 275 275 276 276 276 275 276 274 274 274 273 272 273 273 273 273 274
295 295 295 294 294 293 294 293 295 296 296 296 295 294 293 293 293 292 292 291 290 290 290 290 290 289 289 289 289 289 289 289 289 288 288 287 287 287 287 287 286 286 285 285 284 284 283 282 281 281 280 280 280 280 280 280 280 280 279 279 280 280 280 278 278 277 277 275 275 274 275 275 274 274 274 274 273 272 271 272 272 272 272 272 272
293 293 293 292 292 292 292 292 293 295 295 295 295 294 293 292 292 292 291 291 290 289 289 289 289 289 289 288 288 288 288 288 288 287 287 287 287 287 286 286 285 285 285 284 284 283 282 281 281 281 280 280 280 280 280 280 280 279 279 279 279 279 278 278 277 277 276 275 275 275 274 275 274 273 274 274 273 272 271 270 269 271 271 271 271
290 290 290 291 291 291 292 291 292 294 295 294 293 292 292 291 291 291 290 290 290 289 289 289 289 288 288 288 288 288 287 287 287 287 287 287 286 286 285 285 284 284 284 283 282 282 281 281 280 281 280 280 280 280 280 279 280 279 278 279 279 278 278 277 277 276 276 275 274 274 274 273 273 273 273 273 272 271 271 270 269 269 270 270 270
288 289 290 290 290 289 288 290 292 293 293 292 292 291 290 290 290 290 290 289 289 289 289 289 288 288 287 287 287 287 287 287 287 286 286 286 286 286 285 284 284 282 282 281 281 281 281 280 280 280 282 282 283 282 282 282 280 278 278 278 278 278 277 277 277 276 275 275 274 274 273 272 272 272 271 271 271 270 271 271 270 271 270 270 270
288 289 290 291 290 290 290 291 292 293 292 291 291 290 290 289 289 288 288 289 289 289 288 288 288 287 287 287 287 286 286 286 286 287 287 286 286 285 284 284 283 282 281 280 280 280 280 280 281 282 283 283 283 284 284 284 283 281 279 278 278 277 278 278 277 276 275 274 274 273 272 272 271 272 271 271 271 271 270 270 269 269 269 269 268
286 288 290 290 290 290 290 290 291 291 291 291 290 289 289 288 288 288 287 287 287 287 287 287 287 287 287 286 286 286 286 286 287 289 288 288 286 285 284 283 282 282 281 280 279 279 279 279 280 282 283 283 283 284 285 285 284 284 283 282 281 279 278 278 277 276 275 275 274 273 272 272 272 272 271 271 271 270 270 270 269 269 268 267 267
286 288 289 289 290 290 290 290 291 291 290 290 289 289 288 288 287 287 286 286 286 286 286 287 287 286 286 286 286 286 286 287 288 289 288 288 287 285 284 283 282 281 280 280 279 279 279 279 279 280 280 281 281 283 284 285 285 284 284 283 283 283 283 279 278 276 275 275 274 274 273 272 272 272 272 271 270 270 270 270 269 269 268 268 269
286 288 288 289 288 289 289 290 290 290 289 289 288 288 287 287 286 286 286 286 286 285 286 286 286 286 286 285 285 285 285 287 288 289 288 288 287 285 283 282 281 281 280 280 279 279 279 279 279 279 280 282 282 281 281 282 284 284 284 284 285 285 284 283 282 278 277 276 275 274 273 273 272 272 273 272 272 270 270 269 269 269 270 270 270
288 288 288 288 288 288 288 289 289 289 288 288 287 287 286 286 286 286 286 285 285 285 285 285 285 285 285 285 285 285 285 287 288 288 288 288 288 286 283 282 281 280 280 280 279 279 279 278 278 278 279 280 280 280 280 280 281 281 280 279 279 282 284 284 284 283 281 277 275 274 274 274 274 274 274 275 271 270 270 269 270 270 271 270 267
287 287 287 287 287 287 288 288 288 288 287 287 286 286 286 285 285 285 285 285 284 284 285 284 284 285 285 285 285 284 284 287 288 288 288 288 288 285 282 281 280 280 280 280 279 279 279 279 279 278 279 279 279 280 279 279 279 278 277 277 277 277 278 278 278 278 278 276 275 275 274 275 275 274 274 274 272 272 272 272 272 271 269 268 268
286 286 286 287 287 287 288 288 287 286 286 286 286 285 285 285 284 284 284 284 285 285 284 285 284 284 284 284 284 284 284 287 288 288 288 288 288 283 281 280 279 279 279 279 279 279 279 279 278 278 278 278 280 282 281 279 278 276 276 276 276 277 277 279 280 280 276 274 273 274 273 274 276 274 274 273 272 272 272 271 271 270 269 267 265
286 286 286 286 286 287 287 287 286 286 286 285 285 284 284 284 284 284 284 284 283 284 284 284 284 284 284 284 284 284 284 287 288 288 288 288 286 282 281 280 279 279 279 279 279 279 279 278 278 278 278 278 281 283 282 280 277 276 276 276 276 276 275 278 281 281 281 280 280 280 281 281 280 280 279 278 274 273 271 269 268 269 267 265 266
286 286 286 286 286 286 286 286 286 285 285 285 284 284 284 284 284 284 284 283 282 283 284 284 284 284 284 284 284 283 283 286 288 288 288 288 285 281 280 279 279 279 279 279 279 278 278 280 279 278 277 277 282 283 283 280 277 277 276 275 275 274 274 277 278 279 281 281 281 281 281 281 280 280 279 278 278 275 271 269 269 268 266 266 265
285 285 286 286 286 286 286 286 286 285 284 284 285 284 284 284 284 284 284 284 283 283 284 283 283 284 284 284 284 284 283 285 287 288 288 287 284 281 280 279 278 278 278 278 278 278 278 279 280 279 278 279 283 283 283 280 277 276 276 275 274 274 275 276 276 276 276 276 276 276 276 278 277 276 276 278 277 274 272 271 269 268 266 266 266
286 286 286 286 286 286 286 286 285 285 284 284 284 284 284 284 283 283 283 283 283 283 283 283 283 283 283 283 283 283 283 284 286 287 287 287 285 281 280 279 278 278 278 278 277 277 278 278 280 282 281 282 283 284 283 282 277 277 277 275 274 274 276 276 276 275 273 272 272 272 272 272 273 274 275 274 273 271 271 271 270 269 268 267 266
285 286 286 286 286 285 286 286 285 285 285 285 284 284 284 284 283 283 282 283 283 282 282 282 282 282 283 283 283 283 283 284 285 287 287 287 285 283 280 279 279 279 278 278 277 277 277 277 278 282 282 283 284 284 284 283 281 277 277 276 276 277 278 275 275 275 272 272 271 271 271 271 272 272 272 271 270 270 270 271 270 270 269 268 266
285 285 285 285 285 285 285 285 285 285 285 285 284 283 284 284 283 283 283 282 282 282 282 282 282 282 282 282 283 283 283 284 284 286 287 287 286 284 281 280 280 279 279 278 277 277 277 277 278 281 283 283 284 284 285 284 282 278 278 280 281 282 276 275 274 273 272 272 271 270 270 270 269 270 271 270 269 269 269 269 269 268 269 269 268
285 285 285 285 285 285 285 285 285 285 285 284 284 283 283 283 283 283 282 282 281 281 281 281 281 281 281 282 282 283 282 283 284 285 286 287 286 285 284 282 283 280 279 278 277 277 277 277 278 281 283 283 284 285 285 285 283 279 281 282 282 282 278 275 274 272 272 271 270 269 269 269 269 269 270 269 269 268 267 267 267 267 266 265 265
284 284 284 285 285 284 285 285 285 285 284 284 284 283 283 283 283 282 282 281 281 280 281 281 281 280 280 280 281 282 282 282 283 285 285 287 287 286 285 284 284 281 280 279 279 278 277 277 278 281 283 283 284 284 284 284 282 282 282 282 282 280 275 274 273 272 272 271 270 269 269 269 269 269 269 269 268 267 266 266 265 265 264 263 263
284 284 284 284 285 285 284 285 285 284 284 284 283 283 282 282 282 282 281 281 281 280 280 281 280 280 280 280 280 281 281 282 282 284 285 286 287 286 286 285 285 284 280 279 279 278 279 280 281 282 283 283 284 284 284 284 284 283 282 282 281 277 275 274 273 273 271 271 270 269 269 269 269 269 270 269 267 266 265 264 263 262 262 261 260
284 284 284 284 285 285 284 284 284 284 284 284 283 283 283 282 281 281 281 281 281 280 280 280 280 280 279 280 280 280 280 280 281 283 284 285 285 286 286 285 284 283 281 280 281 281 282 282 282 282 282 282 281 281 280 282 284 283 282 281 278 276 275 274 274 273 272 271 270 269 269 269 269 269 268 266 265 264 262 261 260 259 260 259 259
283 284 284 284 285 285 283 283 283 283 283 283 283 283 283 282 282 281 281 281 281 281 281 280 280 280 279 279 280 280 279 279 280 281 282 283 284 285 285 285 284 283 281 281 281 280 281 280 280 281 281 282 281 281 281 282 282 282 282 281 279 277 276 275 274 273 273 272 271 270 270 269 268 266 264 264 264 263 263 261 260 259 259 260 259
282 283 284 284 284 284 283 282 282 281 282 283 282 282 282 282 281 281 281 281 281 280 281 280 280 280 280 281 280 279 279 279 279 279 281 282 283 284 285 285 283 282 281 280 280 280 279 280 280 279 279 279 280 280 279 280 280 281 281 280 280 279 277 277 276 275 274 273 272 271 269 268 266 265 265 264 263 262 262 261 260 258 259 259 258
282 282 283 284 284 284 283 283 282 281 281 281 282 283 282 282 282 282 283 283 282 281 281 281 281 281 281 281 280 279 278 278 279 280 281 283 283 283 283 284 284 283 282 283 280 279 279 278 277 278 277 276 277 277 278 278 278 280 280 281 280 279 278 276 275 274 274 273 272 270 268 266 265 265 264 263 262 261 261 261 260 258 258 259 258
281 281 282 283 284 284 283 283 282 282 282 281 281 282 283 284 284 283 282 283 284 285 284 282 283 282 282 282 282 281 279 280 283 283 283 283 284 284 284 285 285 284 284 284 281 279 277 277 276 276 276 276 276 276 276 277 277 277 278 279 280 279 278 277 276 275 275 273 272 271 268 266 265 264 263 263 262 261 261 261 259 259 257 257 258
281 281 281 282 283 283 283 283 283 282 282 282 282 281 282 283 285 285 285 284 284 284 285 285 285 285 283 282 283 285 284 284 284 283 283 283 284 284 285 285 286 286 286 283 281 279 277 276 276 276 276 276 275 276 276 276 276 277 277 278 279 279 279 277 276 276 275 273 273 271 269 266 265 263 263 263 262 260 260 261 259 258 258 258 257
281 281 281 282 282 282 282 282 282 282 282 282 282 281 281 281 282 284 285 284 284 285 285 285 285 285 285 285 284 283 285 284 284 284 283 283 283 284 284 285 286 286 286 285 281 279 278 277 277 277 276 275 275 276 276 276 276 276 276 276 277 278 278 278 278 276 275 274 273 271 269 267 266 264 264 264 262 260 259 259 258 258 258 258 258
282 282 282 282 282 282 282 281 281 281 281 281 281 281 281 280 280 280 282 284 285 285 285 285 285 285 285 285 285 284 284 284 284 284 283 283 283 284 284 285 286 286 286 283 281 280 279 279 278 278 277 276 276 276 276 276 276 276 276 276 276 277 278 279 279 277 276 275 274 272 270 267 266 264 264 263 261 260 259 259 259 258 258 257 257
283 282 282 282 282 282 282 281 281 281 281 281 281 281 281 281 280 280 279 279 281 283 284 285 285 285 285 285 285 285 285 285 284 284 284 284 284 284 284 283 285 286 284 282 282 281 280 279 279 278 278 278 277 277 276 276 277 277 277 277 277 277 277 278 278 277 276 275 273 272 269 267 266 264 263 263 262 260 259 259 259 257 257 257 257
283 283 283 282 282 282 282 281 281 281 281 280 280 280 280 280 280 280 279 279 278 278 279 282 283 284 284 284 285 285 285 285 285 284 284 284 284 284 284 281 280 281 282 282 281 281 281 280 279 279 279 278 278 277 277 277 277 277 276 276 277 277 276 276 276 275 275 274 272 271 269 267 266 265 263 262 261 260 259 258 258 257 257 256 257
283 282 282 282 282 282 282 282 282 281 281 281 281 281 280 280 280 280 280 280 279 278 279 280 281 282 284 284 284 285 285 285 285 285 285 284 284 284 280 278 278 279 279 280 280 280 281 281 281 280 280 279 279 278 278 277 277 277 277 276 275 275 275 274 274 274 273 273 272 271 269 267 266 265 264 263 262 261 260 259 258 257 257 257 257
283 283 282 282 282 282 282 282 282 282 282 281 281 280 280 280 280 280 280 279 279 279 279 279 278 279 281 283 283 284 284 284 284 285 284 284 284 283 280 280 279 279 278 279 279 279 279 280 280 281 280 280 279 279 279 278 277 276 276 276 275 275 275 275 274 273 273 272 272 271 270 268 266 265 264 263 262 261 261 259 258 258 257 257 257
283 283 283 283 283 283 282 282 282 282 282 281 281 280 280 280 280 280 279 279 279 279 278 278 279 278 278 279 282 282 283 283 284 283 283 283 283 281 281 280 280 279 279 279 279 279 279 279 280 280 280 280 280 280 279 278 277 277 276 275 275 275 275 274 274 273 273 272 271 271 270 269 267 266 265 264 263 262 261 260 259 258 257 257 257
283 283 284 284 284 284 284 283 282 282 281 281 281 280 280 280 279 279 279 279 279 279 279 278 278 278 279 279 279 281 281 281 281 281 281 282 282 282 281 280 280 279 279 279 279 279 279 278 279 279 279 280 279 279 279 279 278 277 276 276 275 275 275 274 273 273 272 272 271 271 270 270 268 267 266 265 264 263 262 261 260 259 258 257 257
283 283 283 284 283 284 284 283 283 282 282 281 281 280 280 280 279 279 279 279 279 279 279 279 278 279 279 279 279 279 279 279 279 280 280 281 281 281 281 280 280 280 279 279 279 279 278 278 278 278 278 278 278 279 279 279 278 277 277 276 275 275 275 274 274 273 272 272 272 271 270 270 269 267 266 265 265 264 262 261 260 260 259 258 258
283 283 281 283 283 283 282 283 283 283 283 282 282 281 280 280 280 280 280 279 279 279 279 279 280 280 280 280 280 280 279 279 279 279 280 280 280 281 281 281 280 280 280 279 279 278 278 278 278 277 277 278 278 278 278 278 278 277 276 276 276 275 275 275 274 273 273 272 271 271 270 270 269 267 266 266 266 265 263 263 261 260 260 259 258
282 282 282 282 283 283 282 282 283 283 283 283 282 282 281 281 281 280 280 279 279 279 279 280 280 280 280 280 279 280 279 279 279 279 279 280 280 280 281 281 281 280 280 280 279 279 278 278 278 278 277 277 278 278 278 278 278 277 277 276 275 275 275 274 274 273 272 272 271 271 270 269 269 268 267 266 265 265 264 263 262 261 260 259 258
283 282 282 282 282 282 282 282 283 283 283 283 282 281 281 282 281 281 280 280 280 280 279 280 280 280 280 280 280 279 279 279 277 279 279 279 280 280 280 280 281 281 281 280 280 280 279 279 278 278 278 278 278 278 278 278 278 278 277 276 276 275 275 274 274 273 273 272 271 270 270 269 268 267 267 266 265 265 264 263 262 262 261 260 259
282 282 282 282 282 282 282 282 283 283 283 283 282 283 282 282 282 281 281 280 280 280 280 280 280 280 280 280 280 279 279 279 279 279 279 279 280 280 280 280 281 281 281 280 280 280 280 279 279 279 279 279 279 279 279 279 279 278 277 277 276 275 275 274 274 273 273 272 271 270 269 269 268 267 266 265 265 264 264 263 262 262 261 261 259
281 282 282 282 282 282 282 282 283 283 283 282 283 283 282 282 282 282 281 281 281 281 281 281 281 280 280 280 279 279 279 279 279 279 279 279 280 280 280 281 280 280 280 280 280 280 280 280 279 279 279 279 280 279 279 280 279 279 279 278 277 276 275 275 275 274 273 272 271 270 269 268 268 267 266 265 265 265 264 263 263 260 261 260 260
281 281 282 282 282 282 282 282 282 282 283 282 282 282 282 282 282 282 282 282 281 281 281 281 281 281 281 280 280 279 279 279 279 279 279 280 280 280 281 281 281 280 280 280 280 280 280 280 280 279 279 279 279 280 280 280 280 279 279 279 278 277 277 277 276 274 273 272 271 270 269 268 268 267 265 265 265 265 264 264 263 263 262 261 260
281 281 282 282 282 282 282 283 282 282 282 282 283 283 283 282 282 282 282 282 282 282 281 281 281 281 281 281 280 279 280 279 280 280 280 280 280 280 281 281 281 280 280 280 280 280 280 280 280 280 280 280 280 279 279 280 280 279 279 279 279 278 278 277 275 274 273 273 272 271 269 268 267 266 265 264 264 264 263 263 263 262 262 261 260
281 281 281 281 282 282 282 282 282 281 282 282 282 283 283 283 282 282 282 282 281 281 282 282 282 282 281 281 281 280 280 280 280 280 280 280 280 280 280 280 280 280 280 280 280 280 280 280 280 280 280 280 279 279 279 279 279 279 279 279 279 279 277 274 275 274 274 273 272 271 269 268 267 266 265 264 264 263 263 262 262 262 262 261 260
281 281 281 281 281 281 282 282 282 282 282 282 282 282 282 283 283 283 282 282 282 282 282 281 281 282 282 282 281 281 281 280 280 280 280 280 280 280 280 280 280 280 280 280 280 280 280 280 280 280 280 280 280 279 279 279 279 279 279 279 278 276 274 274 274 274 272 272 272 271 270 269 267 266 265 264 264 264 263 263 263 262 261 261 260
281 281 281 281 281 281 282 282 282 282 282 282 282 282 282 282 282 282 282 282 282 282 282 282 282 282 282 281 281 281 281 280 280 280 280 280 280 280 280 280 280 280 280 280 280 281 281 281 280 280 280 280 280 279 279 279 279 279 279 279 276 275 274 273 274 273 272 272 271 270 270 268 268 266 265 264 264 263 263 263 262 261 261 261 259
281 281 281 281 281 281 281 281 281 281 282 282 282 282 282 282 282 282 282 282 282 282 282 282 282 282 282 282 282 281 281 281 281 280 280 280 280 280 280 280 280 280 280 280 280 280 281 281 281 281 280 280 280 280 279 279 279 279 278 277 276 274 273 273 274 272 271 271 271 270 269 268 267 266 264 264 264 263 262 262 262 261 261 260 259
Wind_Speed
11 11 9 10 9 10 11 12 14 12 12 12 11 11 10 10 9 8 6 8 7 8 11 12 14 14 13 12 12 11 11 11 10 9 10 10 9 9 9 9 10 7 8 8 7 9 10 10 8 7 7 8 6 6 5 5 6 5 5 5 5 6 7 6 7 8 3 3 7 7 7 8 6 7 7 5 4 3 5 4 3 2 5 4 3
10 9 9 10 10 10 11 9 10 11 13 13 13 11 11 11 11 8 9 8 8 9 9 11 12 13 12 12 12 11 11 11 11 10 11 11 10 9 10 10 10 9 8 9 8 7 9 10 9 8 7 8 7 7 7 7 6 7 6 7 6 4 6 6 6 8 7 4 6 6 6 7 6 6 8 7 5 4 4 4 3 2 3 5 4
9 9 10 10 10 9 8 10 11 11 13 12 13 13 12 11 11 11 9 8 7 7 7 8 12 14 14 13 12 12 12 12 11 12 11 12 12 10 10 11 11 12 12 11 9 8 9 9 9 9 7 8 7 6 6 6 6 7 7 6 7 6 5 8 10 5 11 7 7 8 7 6 6 7 7 6 6 5 5 4 3 3 2 2 3
9 9 10 11 11 10 10 10 12 12 13 12 14 15 14 13 12 11 10 9 9 7 6 7 8 12 14 13 13 12 12 11 11 11 12 12 12 12 11 10 9 10 11 11 10 10 10 10 9 10 9 9 8 7 6 6 7 7 7 6 7 6 6 7 8 9 7 11 7 8 7 7 4 5 6 6 7 5 4 3 4 4 3 2 1
8 9 10 11 11 12 12 11 12 13 13 11 12 12 12 12 11 13 12 11 10 9 7 7 8 9 12 15 15 15 14 13 13 12 11 11 11 11 11 10 10 10 9 10 9 10 10 10 11 10 10 10 8 8 8 8 7 7 7 6 7 6 6 7 7 9 11 10 9 6 7 5 3 5 6 7 6 4 3 4 4 4 4 3 2
9 10 10 11 12 13 12 11 13 14 14 12 11 11 12 13 13 12 13 13 11 11 11 10 10 11 10 11 14 14 13 13 13 12 12 12 11 11 11 11 11 11 10 11 11 10 11 10 11 11 11 12 10 9 9 9 8 8 8 7 7 6 7 6 7 8 10 9 11 9 7 8 6 5 5 6 7 6 4 3 3 3 4 3 3
8 9 9 10 10 11 11 11 11 12 12 11 9 9 10 11 14 15 14 14 14 13 12 12 10 10 9 10 11 12 13 13 12 12 11 11 12 13 12 11 11 10 9 9 9 10 10 10 11 11 11 11 11 11 11 9 9 9 9 9 8 8 8 7 8 9 9 10 7 8 9 6 7 7 6 6 5 6 6 5 4 3 4 4 4
6 7 8 9 10 10 10 8 9 9 9 9 9 9 9 9 10 9 9 12 14 14 14 14 12 10 9 10 10 10 11 11 11 12 12 12 12 12 12 12 10 9 9 10 10 9 10 10 10 11 10 10 11 10 11 11 8 9 7 8 8 9 8 8 8 9 9 9 9 9 7 8 7 3 5 6 6 5 6 4 7 5 6 5 5
6 6 7 8 7 5 5 5 6 8 8 8 9 10 9 9 9 10 12 13 10 11 10 11 12 12 10 10 10 9 10 12 11 13 13 13 12 12 12 12 12 11 10 10 9 9 8 8 9 9 9 10 13 11 11 10 11 10 8 9 9 9 8 8 8 9 8 9 8 7 8 8 7 9 9 9 10 8 6 5 4 5 6 5 3
5 6 7 7 5 5 6 5 7 8 9 10 10 9 9 9 9 9 10 10 10 11 11 11 11 12 13 11 10 10 9 8 11 19 13 12 13 11 10 11 12 12 11 10 9 8 8 8 8 12 13 14 14 13 13 11 9 8 11 11 11 10 10 10 9 9 9 10 10 10 10 9 10 10 9 7 5 4 6 7 5 5 5 4 3
4 5 6 5 5 6 6 6 7 8 9 9 9 10 10 9 9 10 9 9 11 11 11 11 11 11 12 13 13 11 9 8 16 18 18 17 13 12 12 11 11 11 11 12 11 10 8 7 7 10 11 12 12 15 13 13 12 10 9 10 10 12 12 10 8 9 10 9 8 9 9 9 8 8 8 8 7 8 7 7 7 6 7 7 5
4 4 4 5 5 6 7 7 8 9 8 9 9 9 9 10 10 10 10 10 9 9 10 11 11 10 10 11 12 12 10 13 19 18 18 19 13 12 10 10 10 10 10 10 9 9 9 9 7 7 7 9 10 11 11 13 14 14 14 12 11 6 4 8 12 9 9 9 9 9 8 8 9 9 8 9 8 7 6 7 7 7 7 6 4
4 4 4 5 5 6 7 9 9 9 9 9 9 9 10 10 10 10 12 11 10 11 10 11 11 11 11 12 12 11 10 16 20 20 19 20 18 13 10 10 11 10 10 11 11 10 10 9 8 7 6 12 10 9 9 9 12 16 15 13 10 11 10 8 5 6 8 9 9 9 9 8 9 10 11 10 8 9 7 7 6 6 5 5 3
4 4 4 5 6 7 6 8 8 7 8 9 9 10 10 11 10 9 9 9 10 11 12 12 10 11 12 12 11 11 11 16 21 21 20 20 20 14 10 10 10 10 11 11 10 11 12 11 10 9 8 9 9 10 10 9 9 10 9 8 6 8 10 10 10 11 9 8 9 9 7 9 9 9 9 12 13 11 10 9 8 8 6 4 4
4 4 5 5 6 7 7 8 8 8 8 9 10 10 10 9 9 9 9 11 12 13 13 12 11 11 11 10 10 11 10 19 21 22 22 21 21 13 10 9 9 9 9 10 11 12 12 10 11 11 11 11 9 11 11 11 10 9 9 7 7 6 5 6 6 6 6 6 7 8 7 7 8 10 10 10 11 9 9 10 9 6 6 6 5
6 5 5 6 7 8 9 8 8 8 9 9 10 10 10 10 11 9 8 7 7 7 6 9 11 11 10 11 11 11 10 21 22 22 22 22 21 11 9 10 9 9 9 9 9 9 10 10 11 11 11 10 12 16 12 10 10 10 9 8 7 5 4 3 6 6 5 4 5 7 6 7 11 11 11 10 8 8 8 8 8 6 6 4 3
8 7 6 6 7 7 9 9 9 9 10 10 10 10 10 10 9 8 9 9 9 10 11 11 10 11 12 12 12 11 9 18 22 22 22 24 17 10 10 9 9 10 9 9 9 9 9 10 10 10 11 10 15 20 19 15 11 11 10 10 8 7 6 5 8 10 9 11 12 13 14 16 17 18 18 17 12 10 9 9 7 7 7 5 2
7 7 7 6 6 6 7 8 10 10 10 12 11 10 9 8 9 9 10 10 10 9 8 9 9 10 12 13 12 12 11 16 22 22 23 23 16 12 10 10 9 9 8 9 8 8 9 13 11 11 11 11 19 22 22 16 12 11 11 10 10 8 7 6 5 6 11 13 14 14 15 15 17 18 17 17 18 14 14 11 8 7 6 6 5
7 7 7 6 6 6 7 8 8 9 9 9 9 10 11 10 9 9 9 9 9 8 7 8 8 8 10 11 12 12 10 15 21 20 23 21 16 10 10 9 10 9 9 9 8 7 8 11 14 11 11 13 23 23 24 18 12 12 12 11 12 11 10 10 10 9 8 8 7 8 7 10 9 8 10 17 16 10 3 5 8 9 8 6 6
7 7 7 7 7 7 7 8 9 9 10 9 8 8 8 8 10 10 9 8 9 9 8 8 9 8 8 9 10 11 11 12 16 22 22 22 19 11 9 11 11 12 10 10 10 8 8 9 12 17 18 22 24 25 24 21 13 12 11 12 12 12 9 10 9 9 8 8 7 6 7 6 6 7 8 9 7 5 6 6 7 7 8 8 8
6 7 7 7 8 8 8 8 9 9 9 9 8 8 8 8 9 10 10 8 9 9 9 8 8 7 7 8 9 9 10 12 15 23 23 22 21 16 10 11 10 10 9 9 9 10 10 10 9 16 21 23 24 24 23 23 16 12 12 12 10 9 12 10 11 12 9 8 8 7 7 6 6 6 6 6 5 6 6 7 7 6 7 9 8
7 7 7 8 7 8 8 8 8 8 8 8 9 9 8 8 9 10 9 9 11 10 10 8 8 8 7 8 9 9 9 14 12 20 22 22 21 18 11 12 11 10 9 9 10 10 11 10 10 15 22 23 24 24 24 22 21 11 11 12 14 19 13 10 10 9 9 8 8 7 7 7 7 6 7 8 6 5 4 5 5 5 3 3 8
8 8 8 8 8 9 9 10 9 7 8 9 9 9 8 9 9 9 10 10 11 11 12 11 10 10 9 9 9 9 9 11 16 15 21 22 23 21 17 11 14 11 11 12 13 11 8 9 9 17 22 23 24 25 24 24 19 12 16 18 18 20 14 9 10 9 9 9 9 9 9 9 9 10 9 8 7 6 5 4 5 5 6 6 6
8 8 8 8 8 8 9 10 9 8 9 10 10 10 10 10 9 9 10 10 10 10 10 10 10 10 10 10 9 9 9 9 14 18 18 24 23 24 21 17 17 12 10 9 9 9 10 10 10 19 22 22 25 25 24 22 13 18 19 20 20 17 11 11 10 10 10 9 10 11 11 10 9 9 9 8 7 8 7 7 7 6 6 5 6
8 8 8 8 9 7 8 9 10 9 9 10 10 10 10 10 9 9 9 9 10 10 10 10 11 10 9 9 9 9 9 10 10 15 21 22 23 24 23 20 20 16 11 8 8 9 9 13 18 22 22 22 24 23 20 22 20 18 20 20 17 10 10 10 11 10 11 12 11 11 9 10 11 9 7 8 8 7 7 8 9 9 8 6 6
9 9 8 8 9 8 9 10 11 11 10 8 10 9 10 10 9 9 9 10 9 9 9 10 9 9 9 9 9 10 10 10 10 12 15 18 19 22 23 22 20 20 15 9 11 13 16 18 21 21 21 18 14 12 10 11 17 18 20 19 12 11 11 11 12 13 12 10 9 12 11 9 8 6 7 9 9 10 12 9 10 8 6 6 7
10 9 9 9 9 9 10 9 10 11 13 11 9 8 9 9 10 10 10 10 11 10 10 11 11 10 10 10 10 10 10 11 11 11 12 12 13 15 16 16 19 17 13 9 11 10 13 14 11 13 11 17 16 14 12 12 14 14 12 13 11 11 10 11 11 11 10 10 10 9 8 8 7 8 9 10 11 11 13 12 12 7 8 5 9
11 10 10 9 8 9 9 11 11 9 11 13 12 11 10 11 11 12 12 12 12 12 11 12 13 13 12 12 11 10 11 11 12 13 14 14 13 13 14 13 13 13 12 9 8 8 8 9 11 10 10 10 11 9 9 9 10 11 10 11 11 11 12 12 10 10 10 8 7 7 7 9 12 12 9 11 12 8 12 14 14 9 7 8 8
11 10 10 9 9 9 9 9 9 9 9 10 11 13 15 15 14 12 12 12 12 12 11 11 10 9 9 10 12 12 11 13 17 16 17 17 17 16 15 15 14 12 12 12 9 8 8 8 9 10 10 11 10 10 9 9 10 11 12 11 10 10 10 11 13 12 10 9 10 11 11 13 14 11 11 13 10 8 7 8 5 10 5 7 12
11 11 10 10 10 10 9 9 9 9 9 9 9 8 9 12 12 13 13 17 21 20 16 13 12 10 11 11 11 14 15 13 8 14 13 15 14 15 14 14 14 12 14 20 13 10 10 11 11 11 12 12 13 13 13 13 12 12 12 12 11 11 12 12 12 12 10 11 10 10 10 12 14 16 15 15 12 12 8 11 9 10 12 13 11
10 10 11 11 11 10 10 10 10 9 9 9 8 8 7 9 14 15 12 13 17 18 18 16 14 15 12 10 11 15 9 9 15 18 17 18 17 18 19 19 20 21 23 17 13 12 12 12 12 11 12 12 12 12 11 11 12 11 11 11 11 12 13 13 13 11 11 11 10 9 9 12 13 17 17 12 13 10 8 8 7 9 9 11 10
12 12 12 10 12 11 9 10 9 10 10 9 9 9 9 9 9 13 16 13 16 18 18 18 18 17 19 16 11 10 12 14 16 18 19 21 22 20 19 21 22 24 25 24 14 13 12 12 12 13 13 12 13 11 11 12 11 12 11 11 13 14 14 14 13 12 11 11 11 11 11 11 11 13 13 11 10 9 10 10 10 10 9 9 10
13 11 11 11 11 12 11 10 11 11 11 11 11 11 11 10 11 10 11 15 16 18 20 21 21 20 19 19 19 14 13 13 17 18 21 23 24 24 24 24 24 24 24 17 14 13 12 13 14 13 12 13 11 12 12 11 12 12 12 13 13 14 13 11 11 13 13 13 11 11 11 11 10 11 11 11 12 13 12 11 10 9 9 9 9
14 11 11 12 12 11 11 11 11 11 11 10 10 11 11 11 11 10 9 8 11 13 17 20 21 21 21 20 19 18 16 17 17 20 20 19 21 21 21 16 20 24 22 16 14 13 12 13 14 12 11 11 11 11 12 12 12 12 12 13 12 10 11 11 11 13 13 13 12 11 10 11 11 12 12 11 11 10 11 11 10 11 10 11 11
10 10 14 12 11 12 11 11 11 10 10 11 11 11 12 11 11 11 11 12 13 13 13 14 18 22 18 17 20 21 20 19 19 19 18 19 22 23 21 12 14 16 17 14 14 14 15 16 15 14 13 13 13 12 13 13 12 13 13 13 11 10 10 12 12 11 12 12 12 11 11 12 12 12 13 13 12 12 12 12 11 11 12 11 10
11 10 10 12 11 10 11 11 11 12 12 12 12 11 10 10 11 11 11 11 11 11 10 10 10 13 22 20 20 21 21 21 18 18 16 20 22 25 16 15 15 15 16 16 15 15 13 13 12 12 12 13 12 12 13 13 13 13 12 11 12 12 11 11 11 11 12 12 13 13 11 11 12 12 11 11 14 15 13 13 12 12 11 11 10
11 11 10 10 11 10 10 10 10 11 11 10 10 10 10 10 10 10 10 11 11 10 10 8 8 9 12 14 17 17 19 17 18 17 18 20 25 20 15 14 14 13 14 15 14 13 14 14 12 12 12 13 13 13 12 12 12 12 11 12 11 12 12 12 12 11 12 12 12 13 13 13 12 13 13 13 12 12 11 11 11 12 12 12 10
12 12 12 12 11 11 10 10 11 13 11 10 9 10 10 10 11 11 11 11 11 10 10 10 11 11 13 13 15 12 13 15 15 14 16 19 18 16 15 14 13 14 15 14 14 14 14 13 13 13 13 12 13 12 12 12 12 12 12 12 12 12 14 13 14 14 13 12 12 12 12 12 12 13 13 13 13 12 12 12 12 12 11 12 11
11 14 15 15 13 11 11 10 10 11 11 11 10 11 12 11 11 11 11 10 10 11 10 10 11 12 12 9 10 12 13 12 14 15 14 14 14 14 13 13 13 14 13 13 13 14 14 14 13 12 12 12 12 12 12 12 11 12 12 11 12 11 13 12 13 13 13 13 13 12 12 12 12 12 13 13 13 13 13 13 13 13 13 13 13
10 9 11 15 10 12 10 10 10 10 11 11 11 11 10 11 12 13 12 11 12 12 11 12 12 13 10 11 12 13 15 15 15 14 13 14 15 15 14 14 14 14 14 13 13 14 14 13 12 12 13 12 12 12 12 12 12 12 11 12 13 13 14 13 13 13 14 13 13 12 13 13 12 12 12 13 13 12 13 13 13 13 13 13 12
9 9 8 11 13 10 9 10 10 12 11 12 11 11 12 13 13 12 11 12 12 11 12 12 13 11 11 16 20 20 16 16 15 15 15 15 15 15 15 15 15 14 13 13 13 12 12 12 12 12 12 12 12 12 12 12 12 12 12 13 13 13 13 13 13 13 13 13 13 13 12 13 12 13 13 13 12 12 11 11 11 11 11 11 11
9 8 8 8 11 10 10 11 12 13 12 10 11 12 12 13 12 11 11 12 12 12 12 12 12 10 12 22 23 26 17 12 12 13 13 14 15 16 16 15 14 14 13 13 13 13 13 13 13 13 14 14 14 13 12 13 13 13 13 13 14 13 13 13 14 14 14 13 13 14 13 13 13 13 14 12 12 12 11 11 11 11 11 11 11
9 9 8 8 9 11 11 11 9 9 10 11 12 11 12 11 10 11 11 11 11 12 12 12 11 10 11 18 22 24 15 12 12 14 14 14 14 15 15 16 15 15 14 13 13 13 13 14 14 14 14 15 15 14 14 14 13 13 13 13 14 14 14 13 12 13 13 13 13 14 14 13 13 12 12 12 12 11 11 12 11 11 11 11 11
8 8 8 8 9 8 9 9 10 10 10 11 11 10 10 9 10 10 11 12 12 12 12 12 11 10 10 12 16 16 14 13 13 13 15 14 14 15 15 14 14 14 14 14 13 13 13 13 13 13 13 13 13 14 13 13 13 14 14 14 14 14 14 14 14 14 14 13 12 13 13 13 13 12 12 12 12 12 12 12 12 12 11 11 11
8 8 8 8 8 9 9 9 10 10 10 9 10 10 10 10 11 11 11 12 12 12 12 11 11 10 10 11 13 15 16 15 15 14 14 14 15 15 14 14 14 15 14 14 14 14 14 14 14 13 14 13 13 14 14 13 13 13 13 14 14 15 15 16 15 13 12 13 13 13 12 12 13 12 12 12 13 13 12 13 13 12 12 12 12
8 8 8 8 8 9 9 9 10 10 10 10 10 11 10 11 11 12 12 12 12 11 11 11 10 10 10 11 12 13 15 15 15 15 14 14 14 14 14 14 14 14 14 14 14 15 15 14 14 14 15 14 14 14 13 14 14 13 14 14 15 14 13 12 11 12 13 14 13 13 13 13 13 12 14 13 12 12 12 12 12 13 13 14 14
8 8 8 8 9 9 9 9 9 9 10 10 10 10 10 11 11 11 12 12 12 11 11 11 11 11 11 12 12 13 14 14 14 14 15 15 15 14 13 13 14 14 14 14 14 14 15 15 14 15 15 14 14 15 14 13 13 13 13 13 13 13 11 11 12 13 13 14 14 12 13 13 13 11 14 13 11 12 12 12 13 14 13 12 12
7 8 8 8 8 8 9 8 10 10 10 10 10 10 10 10 10 10 10 11 12 12 11 11 11 11 11 12 12 12 13 13 13 13 13 13 13 13 13 14 14 14 14 14 14 14 14 14 15 15 14 15 15 14 14 13 13 13 13 13 13 13 14 15 12 13 13 13 14 14 14 13 12 12 13 14 13 12 12 12 11 11 12 12 10
7 7 7 8 8 9 8 9 9 9 9 9 10 10 10 10 11 10 10 11 11 11 11 11 11 11 11 12 11 12 12 12 13 13 13 13 13 13 14 14 14 14 13 14 14 15 15 15 15 14 15 14 14 14 14 14 14 14 14 13 15 21 21 21 15 14 17 15 13 13 13 13 14 14 14 14 14 13 13 12 12 13 12 12 12
7 7 8 8 8 8 8 8 8 8 8 9 9 9 9 10 10 10 10 10 11 11 11 11 12 12 12 11 12 12 12 13 14 13 13 12 13 12 13 14 14 14 14 14 14 14 14 14 15 15 15 14 14 14 14 14 14 15 14 15 19 23 22 24 22 22 19 13 15 14 14 14 13 13 13 14 14 14 14 13 13 11 12 13 13
7 7 7 8 8 8 8 8 8 8 8 9 9 9 9 10 10 10 10 11 11 11 11 11 11 12 12 12 11 12 12 13 12 12 12 13 13 13 14 14 15 14 14 15 14 13 14 14 14 14 14 15 14 14 14 14 14 15 17 21 22 23 24 24 19 23 25 18 14 14 14 15 15 14 13 13 13 14 15 14 13 13 13 12 12
Wind_Direction
200 207 195 200 196 199 202 200 194 186 182 182 184 185 178 176 184 181 162 185 190 188 173 164 159 159 158 163 167 170 170 170 171 167 167 166 164 158 158 162 159 155 151 155 159 156 157 152 151 148 145 145 152 153 160 162 158 158 158 154 151 147 148 122 119 120 79 92 134 151 150 138 140 139 135 143 156 169 146 133 142 124 138 146 143
202 199 194 198 199 199 199 201 200 191 185 184 184 182 181 180 172 163 179 181 182 192 185 167 160 156 156 161 165 170 174 171 168 168 170 167 161 159 163 164 161 158 159 161 164 164 155 148 148 145 149 147 152 161 163 160 158 153 162 158 159 148 141 110 131 132 142 127 128 134 142 146 144 150 148 156 171 171 151 145 136 125 118 141 146
202 195 193 195 200 198 192 197 197 197 193 188 187 184 181 177 167 170 174 172 176 187 189 185 167 160 160 163 166 171 176 173 170 169 173 170 162 160 166 168 165 164 166 164 162 157 154 152 150 148 146 146 156 158 160 163 158 158 157 154 155 145 130 131 135 125 146 149 147 150 155 157 158 160 152 161 164 162 157 147 145 136 126 102 128
201 197 196 196 192 188 192 194 196 197 199 197 191 186 180 174 171 170 169 166 171 176 180 184 184 168 161 162 166 170 172 173 171 174 172 169 164 162 164 167 165 164 161 158 161 164 160 151 157 154 152 151 155 157 165 160 161 158 151 152 148 143 134 141 142 132 150 143 173 159 160 155 151 150 146 149 153 158 155 140 128 138 145 149 135
199 200 195 195 192 193 192 189 193 198 202 200 197 186 177 173 171 171 165 169 172 165 170 182 180 179 172 168 168 173 175 172 173 174 171 166 163 161 163 164 163 164 163 163 162 163 163 162 158 158 156 152 154 160 165 165 162 156 153 150 147 139 133 136 134 136 143 148 144 151 149 150 133 148 147 144 143 139 136 139 152 160 168 167 149
200 199 196 193 195 196 194 189 192 195 200 200 195 186 183 173 173 174 170 170 169 174 172 178 186 184 183 179 173 172 170 172 174 173 169 162 160 160 162 164 165 167 168 168 169 170 169 165 163 162 163 161 164 161 163 161 156 156 151 148 144 136 132 128 128 133 135 142 145 146 166 164 147 159 158 145 148 149 141 151 140 149 144 161 170
201 200 197 194 194 199 195 193 193 193 195 195 188 184 185 185 176 173 173 169 171 173 177 176 182 183 178 173 176 173 169 169 168 165 164 165 161 160 161 162 162 164 166 167 169 170 168 163 165 167 167 165 160 164 161 161 162 162 157 149 149 141 137 138 136 133 136 137 142 152 155 158 153 157 163 150 152 159 158 156 176 187 166 182 165
201 196 191 195 197 199 197 189 188 189 189 184 181 183 184 186 178 171 162 168 174 177 176 177 175 173 174 174 172 169 168 168 165 164 165 165 162 161 162 161 160 161 164 169 170 169 167 166 169 170 167 165 163 163 164 162 159 156 156 148 151 146 144 142 138 136 140 145 151 155 160 152 147 130 139 156 161 179 176 161 176 174 184 184 170
197 187 187 192 197 187 171 167 177 180 176 174 176 178 180 177 178 176 176 175 174 173 171 170 166 168 167 169 170 172 175 175 172 169 167 167 166 165 162 160 161 161 164 166 167 165 164 163 164 165 164 162 165 166 170 164 159 157 160 155 155 151 146 146 144 141 141 143 141 145 151 158 163 155 166 180 190 181 167 154 178 172 169 167 158
182 180 183 185 169 163 163 163 173 178 175 177 179 176 174 172 170 173 178 170 168 168 167 171 176 171 166 167 167 172 178 182 179 170 165 166 165 160 158 163 164 163 162 162 163 164 161 157 159 160 160 159 162 164 164 165 162 155 159 159 159 157 157 153 154 154 151 155 162 161 165 176 173 174 173 179 154 140 152 156 152 148 135 143 130
183 174 178 163 158 155 161 169 170 180 181 174 175 174 172 170 170 172 173 169 165 168 168 169 175 175 172 169 168 173 176 179 179 172 165 159 157 160 163 164 164 163 164 163 163 159 154 148 150 158 157 157 159 161 162 158 153 140 143 160 166 165 159 159 162 159 160 161 160 169 174 171 172 165 171 164 177 178 171 165 159 154 166 165 196
188 180 163 155 157 164 170 172 177 181 171 176 176 176 170 169 170 170 169 168 163 155 168 174 172 171 172 172 173 174 175 174 176 172 167 162 156 157 161 163 164 165 163 161 158 154 150 149 152 157 159 158 155 154 153 155 153 151 152 156 160 152 164 164 159 158 159 158 165 177 168 175 163 162 169 170 173 159 166 167 175 171 173 191 195
187 185 168 156 163 164 170 177 182 174 173 173 173 167 170 172 172 172 175 172 168 170 169 168 171 173 174 175 176 174 174 173 174 171 167 164 161 155 165 164 164 167 164 160 157 154 152 153 154 159 156 152 148 148 144 143 148 150 152 145 132 136 140 135 133 147 152 159 165 170 179 164 164 181 176 166 153 156 157 171 181 184 183 189 166
187 187 172 163 160 166 164 170 175 170 169 167 166 167 172 178 175 171 167 168 169 162 165 172 174 177 178 176 174 173 174 174 173 171 168 166 163 160 165 164 165 164 164 162 159 159 160 161 161 162 162 159 155 151 145 140 139 138 137 131 131 127 118 112 120 138 153 163 164 175 178 166 180 170 162 153 158 167 169 180 175 179 181 151 86
204 190 185 173 162 167 172 174 178 168 171 167 166 168 170 168 167 168 171 175 176 173 175 173 174 173 174 174 174 177 178 174 173 170 168 165 163 154 160 160 159 161 162 162 163 164 166 166 165 164 164 166 165 158 150 147 141 139 138 141 143 146 136 140 147 144 141 149 165 170 166 165 153 145 152 162 165 167 171 170 168 145 107 108 111
201 194 191 183 177 174 177 179 172 162 165 166 167 168 169 170 170 168 168 172 174 165 163 168 170 173 175 173 176 181 178 176 174 167 165 166 160 154 159 159 158 160 161 164 165 168 169 166 163 166 166 165 161 156 150 145 143 144 149 154 157 154 149 140 133 112 114 116 125 138 141 140 140 146 150 150 141 132 111 94 83 105 127 125 129
198 191 185 182 183 180 179 171 168 167 167 169 172 170 167 165 164 161 166 175 176 180 177 180 175 169 173 178 180 180 176 178 173 168 166 167 160 162 158 157 160 163 167 167 168 170 171 167 165 165 165 167 165 163 157 150 152 157 160 163 164 163 161 152 149 138 122 116 122 127 132 138 143 148 152 147 144 134 122 126 157 144 140 140 121
198 191 186 179 182 179 181 174 170 174 177 178 175 170 166 163 165 168 173 173 181 184 178 173 172 173 179 182 182 177 179 179 173 167 168 167 164 163 161 157 161 164 164 169 170 172 172 168 165 166 169 169 171 170 166 159 163 166 163 160 164 171 170 155 142 141 132 128 132 135 138 142 148 152 152 150 150 147 148 168 160 147 153 158 159
198 190 181 171 178 182 182 178 175 175 180 182 175 172 174 173 167 168 173 173 174 167 173 176 176 180 182 182 180 176 173 177 174 168 170 164 162 162 160 160 163 169 167 170 173 167 170 175 174 171 168 167 174 175 172 168 170 171 166 165 174 179 175 158 154 146 140 132 131 130 136 146 148 144 152 157 155 155 129 131 147 161 157 159 144
195 184 178 172 172 182 188 186 181 179 179 174 176 175 169 165 170 171 171 170 169 170 175 176 178 182 176 177 182 178 170 174 175 170 172 167 164 162 165 165 173 174 174 171 169 176 177 178 183 179 171 172 178 180 179 174 172 170 170 179 177 181 160 160 160 150 142 140 141 137 137 131 127 137 146 145 143 148 154 154 161 155 156 161 168
193 187 180 175 172 180 186 188 182 180 177 174 170 171 174 174 169 171 170 169 168 169 172 177 176 172 179 184 181 181 175 171 177 175 174 170 169 165 173 178 177 172 171 169 178 178 182 185 183 184 176 176 181 184 184 181 175 174 181 184 183 158 146 156 156 148 148 145 145 144 141 139 137 140 139 141 155 164 161 156 157 160 160 164 164
192 192 186 182 175 170 180 186 181 177 175 170 173 176 177 175 176 174 172 171 173 172 173 175 172 173 181 186 189 184 175 174 173 178 175 174 175 171 172 186 178 169 167 177 181 189 188 183 179 184 182 178 183 186 187 185 181 178 187 172 156 154 155 153 152 155 154 154 152 155 154 150 152 155 169 174 168 163 151 143 133 126 133 91 157
191 196 192 187 183 174 173 183 184 177 176 174 174 178 175 177 177 176 173 173 175 174 175 173 171 177 179 187 190 185 176 180 175 179 181 180 180 181 181 173 171 170 176 183 189 188 178 176 173 177 185 181 184 187 188 188 185 187 177 172 170 159 148 151 155 158 161 163 163 169 168 165 169 181 181 176 168 153 136 109 101 88 72 69 54
190 195 198 194 187 181 175 176 184 179 175 174 178 176 177 180 179 181 178 176 177 177 180 175 174 178 180 183 183 183 177 179 181 181 185 186 184 187 186 177 175 183 183 189 182 179 177 177 170 177 184 184 185 188 191 191 189 183 177 178 173 154 148 155 166 169 168 171 178 176 181 182 177 180 188 175 159 155 134 108 91 88 95 82 77
193 196 197 195 192 185 175 176 176 177 176 173 177 179 179 179 181 183 180 184 184 183 181 180 181 180 177 178 179 182 179 178 181 187 186 190 190 191 191 181 182 175 182 190 178 176 165 163 166 178 184 186 188 190 195 198 190 180 180 177 163 158 164 165 168 168 181 190 190 185 183 185 188 184 158 144 137 123 116 87 62 64 71 79 76
194 199 195 193 192 183 177 177 176 170 174 181 181 179 178 181 184 182 186 189 190 189 185 184 182 178 177 178 183 186 182 176 182 185 188 191 195 195 192 188 187 189 188 177 175 162 159 163 167 176 183 187 187 192 196 193 190 182 180 177 166 173 173 174 179 185 196 187 182 188 190 177 176 158 144 141 147 159 140 125 123 116 121 121 109
193 196 197 192 191 189 183 181 179 178 173 175 179 180 184 185 188 188 189 190 191 192 189 185 185 182 179 183 187 187 189 186 182 181 185 190 195 196 192 194 192 189 188 179 168 161 162 163 169 171 177 187 190 193 192 188 193 191 186 186 184 180 185 185 186 189 193 194 192 186 175 168 145 138 152 160 159 154 136 129 125 139 132 137 130
189 194 195 195 193 190 189 184 181 181 182 177 178 183 187 188 192 195 192 193 191 194 192 190 189 186 185 186 187 189 193 193 189 182 185 188 192 192 193 189 188 191 188 178 162 150 148 149 156 163 174 186 194 197 196 196 195 195 192 189 193 186 187 191 191 200 203 189 175 165 160 161 162 154 162 160 154 150 138 140 143 145 156 141 135
185 190 192 193 197 192 191 189 189 187 189 195 198 191 185 187 194 195 195 190 194 195 199 204 199 193 189 187 184 192 198 201 203 191 187 186 185 184 184 188 185 185 179 158 138 132 138 154 164 171 180 184 189 194 198 198 203 202 200 196 191 190 184 188 202 205 193 179 186 180 173 142 155 168 163 150 160 152 156 129 138 129 146 192 185
183 189 191 194 195 192 195 192 191 194 194 196 196 209 220 211 199 191 193 199 200 199 193 200 195 187 193 203 198 199 203 212 160 171 177 175 177 179 181 177 175 166 164 166 160 160 172 174 181 183 186 190 194 195 195 196 197 198 203 201 196 193 195 198 202 204 192 193 186 179 175 172 166 161 155 156 138 138 162 166 156 161 149 180 182
186 189 190 197 193 194 194 195 194 194 195 195 197 201 201 214 217 214 209 200 203 206 206 206 195 197 197 202 208 218 220 168 165 176 174 178 177 174 173 177 176 175 168 162 178 183 181 186 190 194 198 197 198 199 197 196 200 199 201 199 203 202 200 199 201 197 192 193 187 182 168 176 181 162 165 180 171 146 158 176 164 178 187 180 170
189 193 192 189 191 194 195 195 194 195 196 194 196 197 201 204 214 218 216 206 204 207 208 207 205 201 204 205 201 208 203 180 169 172 172 170 172 170 172 175 178 177 177 173 180 191 186 189 196 204 200 199 202 197 197 199 199 200 197 198 205 207 203 204 194 189 193 192 192 185 178 181 178 179 182 176 169 161 171 177 182 185 193 194 204
193 193 188 187 189 191 190 194 197 197 197 195 196 196 199 203 207 209 214 217 213 209 212 215 214 211 209 209 207 204 200 190 178 175 176 179 178 182 181 181 181 179 172 182 199 191 191 196 206 206 199 204 199 199 201 199 200 200 202 204 206 206 206 200 179 189 196 198 192 192 181 179 176 173 182 174 170 177 181 186 185 186 185 193 202
200 190 187 188 186 189 191 191 194 199 200 200 199 197 201 201 205 200 200 204 221 226 225 220 218 217 217 214 210 207 202 197 192 186 181 177 179 177 174 176 179 182 187 197 195 201 195 205 210 206 201 203 203 199 201 203 202 202 203 208 210 203 199 192 189 194 195 193 195 193 179 178 174 171 181 180 180 176 181 187 180 182 190 194 197
208 206 195 186 189 192 192 192 192 192 193 198 199 199 200 200 198 198 197 199 205 209 211 215 216 214 214 214 213 210 207 203 198 193 178 175 176 173 167 169 185 198 202 209 203 203 203 205 207 205 202 202 203 200 204 203 201 202 205 204 202 198 193 193 198 191 191 191 192 190 184 180 180 179 177 178 175 182 188 187 188 189 189 193 194
204 203 200 196 195 196 194 196 193 191 194 198 199 199 196 194 198 203 203 203 204 206 212 212 211 214 214 216 213 210 207 205 203 195 175 173 172 166 177 196 197 199 202 205 209 210 210 213 209 207 202 209 202 203 205 202 204 203 202 198 198 198 195 194 195 191 190 189 194 189 181 184 181 179 178 184 187 187 187 189 188 190 192 194 191
204 205 202 201 199 197 200 197 198 198 197 194 190 193 194 199 200 202 204 205 205 205 206 193 187 202 211 219 214 210 207 204 202 197 178 174 174 179 199 198 200 197 204 206 206 208 210 214 209 210 206 206 205 206 202 204 201 200 198 199 197 196 200 196 192 188 188 191 193 189 188 187 182 181 178 185 190 191 190 186 187 189 192 193 184
205 206 206 200 197 199 197 199 201 197 198 196 193 192 195 196 198 200 204 206 204 200 198 196 195 199 201 210 189 196 200 198 195 200 193 185 184 195 202 205 200 202 204 204 204 205 211 209 208 211 209 204 206 202 202 203 198 198 197 197 197 202 195 193 192 192 193 192 192 191 189 188 183 183 182 188 188 189 191 186 184 187 191 191 188
214 216 211 200 200 201 201 197 194 193 200 198 196 194 197 196 197 201 206 205 203 202 200 197 201 206 206 180 174 186 178 192 199 205 199 198 198 201 206 206 207 208 207 204 203 203 207 207 206 207 207 206 205 203 203 204 199 200 195 195 197 196 194 195 194 194 193 196 194 190 190 190 184 184 186 186 190 190 190 185 187 187 186 189 195
210 213 212 205 206 207 205 202 197 197 201 200 200 197 197 198 202 203 202 200 205 204 201 200 206 210 193 168 178 175 189 198 202 201 199 200 204 205 205 210 211 212 208 206 204 205 205 207 201 202 205 206 203 204 203 202 200 198 194 196 197 199 199 196 195 193 196 194 191 189 189 189 185 182 185 191 191 186 186 187 189 189 191 191 193
207 211 205 205 209 206 204 202 204 206 205 204 201 197 203 204 205 203 201 204 206 207 207 210 213 207 188 188 184 182 189 196 197 197 199 201 204 205 207 211 212 212 210 208 206 203 204 203 201 202 203 205 204 202 202 199 198 194 196 197 198 202 200 199 196 197 195 192 192 190 190 187 182 180 189 195 189 184 188 187 187 188 190 189 187
203 206 206 205 205 210 210 211 211 208 208 204 203 204 208 209 206 203 204 205 207 207 209 214 215 207 195 188 186 187 191 202 198 200 201 201 203 206 207 209 210 211 209 208 202 201 201 203 203 202 203 203 203 203 198 199 196 197 196 196 197 198 198 199 197 194 192 192 192 191 189 187 185 187 189 183 185 184 181 186 188 185 185 185 186
202 205 204 197 197 206 214 218 214 213 208 210 211 211 211 207 205 205 207 210 210 210 213 215 216 203 198 191 190 189 197 201 202 200 202 203 205 206 206 208 207 207 207 207 204 203 203 203 204 204 204 203 202 202 199 199 195 196 195 197 197 198 199 198 194 193 192 191 191 189 188 186 185 184 185 185 184 181 185 184 185 185 186 182 183
206 209 204 201 203 207 213 215 217 217 216 217 217 215 209 209 209 207 210 211 212 212 214 215 214 203 198 190 189 190 201 203 206 205 204 204 205 206 207 207 205 206 205 206 206 205 204 205 206 207 206 205 204 203 203 201 196 196 195 196 197 198 198 197 196 193 189 188 186 184 186 187 185 183 183 183 179 181 184 185 187 186 184 184 180
206 207 206 206 207 207 213 212 219 218 218 215 217 216 210 210 211 212 211 214 214 214 214 215 210 205 197 192 191 195 200 203 205 205 207 206 207 207 205 204 204 205 205 207 207 204 206 206 207 205 206 206 202 202 203 202 199 199 198 195 197 198 200 199 197 188 180 181 183 183 184 183 185 184 184 182 183 182 184 187 186 182 183 185 183
206 209 209 209 211 212 215 215 212 215 214 215 216 218 216 213 213 214 214 217 215 215 215 214 212 208 204 200 198 201 203 204 207 207 207 207 208 207 205 203 203 204 206 206 204 205 206 206 205 206 205 205 202 203 202 203 201 200 199 201 201 203 200 194 180 175 180 182 181 182 183 183 185 186 184 180 182 184 186 186 185 188 188 186 186
207 209 212 212 213 216 217 217 216 216 217 218 218 220 218 219 218 219 220 219 218 217 217 213 209 209 206 204 202 204 205 206 210 207 209 208 207 206 204 203 201 204 204 205 205 205 205 205 206 206 206 204 203 202 201 200 201 200 200 201 203 196 192 184 178 179 180 181 179 177 181 181 181 179 180 177 179 184 185 186 187 188 188 186 183
215 214 215 214 215 217 219 214 220 220 221 221 221 221 221 221 219 220 221 220 221 222 221 219 216 213 209 212 207 205 204 209 210 213 212 210 209 206 204 203 203 204 202 203 204 203 203 205 205 204 203 202 202 201 201 199 198 198 199 200 199 197 184 176 175 176 177 176 178 179 177 178 178 177 176 179 180 179 182 188 185 189 186 184 182
218 219 219 218 219 220 220 219 218 217 219 221 223 224 223 223 225 223 219 220 220 221 221 223 221 218 217 218 210 210 206 206 209 210 211 211 208 207 205 205 205 203 202 204 202 202 204 204 203 203 202 201 201 200 198 198 197 198 199 200 197 191 180 175 176 179 172 172 175 176 175 176 176 177 175 178 180 179 184 183 184 185 183 182 180
226 222 222 223 222 225 222 223 222 221 221 219 221 226 223 225 227 227 225 223 224 222 221 220 220 219 219 218 215 213 208 209 210 210 211 210 208 206 206 205 205 205 205 205 203 202 202 203 201 202 201 200 198 199 198 198 199 197 199 198 192 185 181 178 178 171 170 175 173 175 174 175 175 175 175 176 176 177 180 183 183 182 184 183 185
230 231 229 226 226 225 223 222 224 224 222 221 223 224 226 225 227 226 227 226 226 225 223 222 222 219 220 219 217 216 215 216 213 212 212 210 208 205 206 206 205 206 206 206 204 203 201 201 201 201 200 200 198 198 198 199 198 199 197 193 187 182 181 179 180 175 174 171 171 170 172 174 173 173 173 174 174 178 181 177 178 181 187 186 182